TimeEDT,TemperatureF,Dew PointF,Humidity,Sea Level PressureIn,VisibilityMPH,Wind Direction,Wind SpeedMPH,Gust SpeedMPH,PrecipitationIn,Events,Conditions,WindDirDegrees,DateUTC
12:53 AM,75.9,75.9,100,30.07,10.0,Calm,Calm,-,N/A,,Clear,0,2013-09-17 04:53:00
1:53 AM,75.0,75.0,100,30.06,6.0,Calm,Calm,-,N/A,,Partly Cloudy,0,2013-09-17 05:53:00
2:53 AM,75.0,75.0,100,30.06,6.0,Calm,Calm,-,N/A,,Clear,0,2013-09-17 06:53:00
3:42 AM,73.4,73.4,100,30.06,1.8,Calm,Calm,-,N/A,,Clear,0,2013-09-17 07:42:00
3:53 AM,73.0,73.0,100,30.05,4.0,Calm,Calm,-,N/A,,Clear,0,2013-09-17 07:53:00
3:59 AM,73.4,73.4,100,30.06,1.5,Calm,Calm,-,N/A,,Clear,0,2013-09-17 07:59:00
4:15 AM,73.4,73.4,100,30.06,2.0,Calm,Calm,-,N/A,,Clear,0,2013-09-17 08:15:00
4:19 AM,71.6,71.6,100,30.05,0.8,Calm,Calm,-,N/A,,Clear,0,2013-09-17 08:19:00
4:51 AM,71.6,71.6,100,30.06,2.0,Calm,Calm,-,N/A,,Clear,0,2013-09-17 08:51:00
4:53 AM,72.0,72.0,100,30.05,2.0,Calm,Calm,-,N/A,,Clear,0,2013-09-17 08:53:00
5:03 AM,73.4,73.4,100,30.06,4.0,Calm,Calm,-,N/A,,Clear,0,2013-09-17 09:03:00
5:53 AM,73.0,73.0,100,30.06,4.0,Calm,Calm,-,N/A,,Partly Cloudy,0,2013-09-17 09:53:00
5:59 AM,71.6,71.6,100,30.07,1.8,Calm,Calm,-,N/A,,Mostly Cloudy,0,2013-09-17 09:59:00
6:10 AM,71.6,71.6,100,30.07,0.5,Calm,Calm,-,N/A,Fog,Fog,0,2013-09-17 10:10:00
6:24 AM,73.4,73.4,100,30.08,0.2,Calm,Calm,-,N/A,Fog,Fog,0,2013-09-17 10:24:00
6:53 AM,73.0,73.0,100,30.08,0.2,Calm,Calm,-,N/A,Fog,Fog,0,2013-09-17 10:53:00
7:03 AM,73.4,73.4,100,30.10,1.0,ENE,5.8,-,N/A,,Mist,70,2013-09-17 11:03:00
7:07 AM,71.6,71.6,100,30.10,3.0,NE,3.5,-,N/A,,Mostly Cloudy,50,2013-09-17 11:07:00
7:22 AM,71.6,71.6,100,30.10,5.0,Variable,3.5,-,N/A,,Scattered Clouds,0,2013-09-17 11:22:00
7:53 AM,71.1,71.1,100,30.10,6.0,Calm,Calm,-,N/A,,Clear,0,2013-09-17 11:53:00
8:53 AM,73.9,73.0,97,30.12,9.0,ENE,3.5,-,N/A,,Clear,70,2013-09-17 12:53:00
9:37 AM,75.2,71.6,89,30.13,10.0,ENE,4.6,-,N/A,,Mostly Cloudy,70,2013-09-17 13:37:00
9:46 AM,75.2,73.4,94,30.14,10.0,ENE,4.6,-,N/A,,Mostly Cloudy,60,2013-09-17 13:46:00
9:53 AM,75.9,73.0,91,30.14,10.0,ENE,6.9,-,N/A,,Overcast,70,2013-09-17 13:53:00
10:26 AM,78.8,73.4,83,30.16,10.0,ENE,6.9,-,N/A,,Scattered Clouds,70,2013-09-17 14:26:00
10:44 AM,78.8,73.4,83,30.16,10.0,East,9.2,-,N/A,,Mostly Cloudy,80,2013-09-17 14:44:00
10:53 AM,80.1,73.9,81,30.15,10.0,ENE,9.2,-,N/A,,Mostly Cloudy,60,2013-09-17 14:53:00
11:15 AM,80.6,73.4,79,30.16,10.0,ENE,8.1,-,N/A,,Scattered Clouds,60,2013-09-17 15:15:00
11:23 AM,82.4,73.4,74,30.15,10.0,East,5.8,-,N/A,,Mostly Cloudy,90,2013-09-17 15:23:00
11:53 AM,82.0,73.9,76,30.15,10.0,ENE,8.1,-,N/A,,Mostly Cloudy,70,2013-09-17 15:53:00
12:34 PM,84.2,73.4,70,30.15,10.0,Variable,6.9,-,N/A,,Mostly Cloudy,0,2013-09-17 16:34:00
12:53 PM,82.9,73.0,72,30.14,10.0,ENE,10.4,16.1,N/A,,Scattered Clouds,60,2013-09-17 16:53:00
1:05 PM,84.2,73.4,70,30.14,10.0,East,8.1,-,N/A,,Mostly Cloudy,80,2013-09-17 17:05:00
1:32 PM,84.2,73.4,70,30.13,10.0,East,10.4,16.1,N/A,,Scattered Clouds,80,2013-09-17 17:32:00
1:53 PM,84.0,72.0,67,30.12,10.0,ENE,9.2,17.3,N/A,,Partly Cloudy,70,2013-09-17 17:53:00
2:42 PM,82.4,73.4,74,30.10,8.0,Variable,6.9,17.3,N/A,,Mostly Cloudy,0,2013-09-17 18:42:00
2:53 PM,84.0,73.0,69,30.10,8.0,Variable,5.8,-,N/A,,Scattered Clouds,0,2013-09-17 18:53:00
3:53 PM,82.9,73.0,72,30.08,7.0,NE,8.1,-,N/A,,Scattered Clouds,40,2013-09-17 19:53:00
4:53 PM,82.9,72.0,69,30.07,7.0,NE,10.4,18.4,N/A,,Mostly Cloudy,50,2013-09-17 20:53:00
5:15 PM,82.4,71.6,70,30.08,7.0,NE,9.2,-,N/A,,Scattered Clouds,50,2013-09-17 21:15:00
5:53 PM,81.0,72.0,74,30.07,8.0,NE,9.2,16.1,N/A,,Scattered Clouds,50,2013-09-17 21:53:00
6:15 PM,80.6,71.6,74,30.09,8.0,Variable,4.6,-,N/A,,Mostly Cloudy,0,2013-09-17 22:15:00
6:32 PM,80.6,71.6,74,30.09,8.0,NE,8.1,-,N/A,,Mostly Cloudy,50,2013-09-17 22:32:00
6:53 PM,79.0,71.1,77,30.09,8.0,Variable,4.6,-,N/A,,Scattered Clouds,0,2013-09-17 22:53:00
7:53 PM,77.0,71.1,82,30.10,9.0,ENE,5.8,-,N/A,,Mostly Cloudy,60,2013-09-17 23:53:00
8:36 PM,75.2,71.6,89,30.12,9.0,NE,6.9,-,N/A,,Mostly Cloudy,50,2013-09-18 00:36:00
8:53 PM,75.9,71.1,85,30.11,9.0,NE,5.8,-,N/A,,Mostly Cloudy,50,2013-09-18 00:53:00
9:53 PM,75.0,70.0,84,30.13,10.0,ENE,8.1,-,N/A,,Mostly Cloudy,60,2013-09-18 01:53:00
10:53 PM,73.0,68.0,84,30.13,10.0,NE,5.8,-,N/A,,Clear,50,2013-09-18 02:53:00
11:53 PM,72.0,66.0,81,30.13,10.0,ENE,6.9,-,N/A,,Clear,70,2013-09-18 03:53:00